Theta_e
304 304 307 308 309 309 311 313 311 309 308 308 307 307 308 310 310 310 311 311 311 311 311 311 312 311 311 311 311 313 316 316 315 314 314 314 313 312 312 312 316 317 316 314
297 301 302 305 307 309 310 309 312 311 310 307 309 307 308 309 309 310 311 312 311 312 311 311 311 311 311 311 311 311 312 315 314 314 314 314 314 312 312 314 316 315 311 309
299 300 305 302 306 308 309 311 311 312 312 311 311 310 311 310 311 311 311 312 311 311 311 311 311 311 311 311 311 311 311 313 314 314 314 314 313 312 314 315 311 309 309 310
299 303 302 304 306 307 307 307 309 310 309 311 311 311 311 311 311 311 311 311 311 311 310 310 310 310 311 311 311 311 311 312 313 314 313 313 313 314 313 309 309 309 309 309
301 303 301 306 306 304 309 309 305 304 305 307 308 310 310 311 311 311 310 310 310 309 309 309 309 309 309 309 310 311 311 312 312 313 313 312 312 310 309 308 308 309 308 308
298 302 305 306 305 305 302 309 304 304 304 306 307 308 309 310 309 309 309 309 310 309 309 309 308 308 309 309 309 309 311 312 311 312 311 310 309 308 308 308 308 308 308 307
296 297 299 303 305 304 307 304 303 304 304 304 306 306 308 308 309 309 308 308 308 308 308 308 308 308 308 309 310 309 311 312 311 311 310 309 308 308 308 307 307 307 307 306
300 300 300 304 304 306 303 303 302 303 303 304 306 308 307 308 308 308 308 308 308 307 307 307 308 309 310 309 309 309 311 311 311 310 310 309 308 307 307 307 307 307 306 305
300 300 301 304 303 303 304 304 304 304 304 304 304 306 307 308 308 308 309 308 307 306 307 308 308 309 309 309 309 311 311 311 310 309 309 308 307 307 307 307 306 305 305 305
302 301 300 300 303 300 297 298 300 301 303 305 304 305 308 308 308 308 308 308 307 306 307 309 310 309 309 310 310 311 311 311 310 309 308 308 307 306 306 306 305 304 304 305
296 296 300 301 298 298 298 298 298 300 301 302 304 305 307 307 307 307 307 307 307 306 306 308 309 309 310 310 310 310 310 310 309 308 307 307 306 306 305 304 304 304 304 304
296 295 296 297 298 298 298 298 298 298 299 300 300 304 306 307 307 306 307 306 306 306 306 306 307 308 309 308 308 308 309 309 308 307 306 306 306 305 304 303 303 303 303 304
296 297 297 298 297 297 297 297 297 297 298 299 300 304 305 306 306 304 306 305 305 305 306 306 305 305 305 306 307 307 307 307 307 306 305 305 304 304 303 303 303 303 303 302
297 297 297 296 295 296 296 297 298 299 301 302 302 303 305 305 306 306 306 304 304 304 304 305 305 305 306 306 306 306 305 305 304 303 303 303 304 304 304 304 303 302 300 300
297 297 296 296 296 296 297 298 298 299 300 301 302 304 305 305 306 306 305 304 304 302 302 302 302 302 302 302 302 302 302 303 304 304 304 304 304 303 303 302 302 301 300 300
297 297 296 296 296 297 298 299 300 301 301 302 302 302 304 304 305 305 304 303 302 301 301 301 302 302 301 301 301 299 299 300 300 301 301 301 301 301 301 301 300 300 300 299
297 297 296 296 296 297 298 299 300 301 301 301 301 301 301 302 302 301 300 300 300 300 300 301 301 301 300 300 299 297 297 299 299 299 299 300 299 299 299 299 299 299 299 298
297 297 296 296 297 297 298 298 299 299 300 300 300 300 300 301 300 300 300 300 300 300 300 300 299 298 296 294 293 293 295 296 297 297 298 298 298 298 298 298 298 298 297 297
297 297 297 297 297 297 298 298 298 298 298 298 299 299 299 299 299 299 299 299 298 298 297 295 293 291 290 289 289 289 290 293 293 295 295 296 296 296 296 296 296 296 296 295
297 297 297 297 297 297 297 297 297 297 297 297 297 298 298 298 298 297 297 297 296 294 291 290 289 288 288 288 288 288 288 288 290 292 292 293 293 293 294 293 293 293 293 293
296 296 296 296 296 297 297 296 296 295 295 296 295 293 293 293 290 290 290 290 289 290 289 288 288 288 287 287 287 287 287 287 287 287 287 288 288 288 288 288 288 288 287 287
295 296 296 296 296 295 292 290 289 289 288 288 288 288 288 288 289 289 288 288 288 289 288 287 287 287 287 287 287 286 286 286 287 287 287 287 287 287 287 287 286 286 286 286
294 295 295 295 293 291 291 292 293 294 294 294 292 290 289 288 287 287 287 287 288 288 287 286 286 286 286 286 286 286 287 288 287 287 287 287 288 287 287 286 286 286 286 286
295 295 295 295 293 293 295 295 294 294 295 295 296 296 296 294 291 289 288 287 287 286 286 286 286 286 286 287 287 287 287 286 286 286 286 287 287 286 286 286 286 286 286 286
294 293 293 293 293 293 293 294 294 295 295 295 295 295 295 295 295 293 290 289 287 286 286 286 286 286 287 287 287 287 286 286 285 285 285 286 286 286 286 286 286 285 285 285
294 293 292 291 290 290 290 290 290 290 290 290 290 292 294 294 294 294 294 292 290 288 286 285 285 286 286 287 287 286 286 285 285 285 285 286 286 286 285 285 285 285 285 285
294 292 291 290 289 288 288 288 288 288 289 290 291 290 289 290 292 294 294 294 294 294 293 291 287 285 285 286 286 286 286 285 285 285 284 286 286 286 285 285 284 284 284 284
Wind_Speed
9 10 8 6 8 6 6 4 4 1 8 7 3 3 2 2 7 6 4 3 3 4 1 2 1 1 1 3 7 12 15 16 15 14 15 15 15 16 16 15 12 13 14 13
4 7 9 10 8 11 13 8 10 8 6 5 5 3 5 5 2 0 7 10 9 10 10 10 8 7 7 6 7 9 13 16 16 17 17 17 17 18 18 16 13 14 11 10
4 5 2 3 6 8 3 4 4 9 3 4 11 5 5 5 11 15 17 16 11 11 12 13 15 14 10 9 10 10 12 16 19 20 19 19 19 19 19 17 14 11 10 12
3 5 1 5 5 2 6 5 4 7 8 8 16 30 23 21 19 17 15 12 8 12 13 14 14 14 16 17 16 14 12 16 20 21 20 20 20 20 18 16 12 11 11 12
2 2 5 3 5 4 2 3 7 6 9 17 21 18 14 17 16 12 10 11 13 15 17 20 19 18 19 19 18 20 17 16 20 22 22 22 21 18 17 14 12 11 11 12
2 1 2 1 6 5 4 2 10 12 10 11 3 2 4 13 9 7 7 8 11 14 18 20 19 20 19 19 21 22 19 16 18 19 19 18 16 16 15 14 13 12 12 13
1 2 6 4 12 7 2 2 12 14 14 16 5 7 5 1 3 6 8 9 12 14 15 16 16 17 18 21 19 18 17 15 17 18 17 16 16 16 14 14 13 12 12 14
3 2 5 5 4 2 0 2 6 13 18 19 16 14 8 4 5 6 7 8 10 12 12 12 12 12 12 14 15 16 17 15 17 18 17 18 17 16 16 14 12 12 12 13
7 5 3 2 2 5 0 5 8 12 15 18 19 15 10 9 7 6 6 7 8 8 8 9 10 9 7 8 12 13 15 14 15 16 16 17 17 16 15 13 12 12 11 11
1 1 0 3 3 3 5 9 10 11 15 15 20 19 12 8 6 5 3 4 5 5 4 5 4 4 5 5 8 11 15 13 13 14 16 16 16 16 15 13 12 12 13 13
4 5 3 3 5 3 10 14 15 13 13 14 16 19 13 8 7 5 3 3 4 4 3 2 6 5 6 9 11 13 12 12 12 13 14 15 14 14 13 13 13 14 12 11
4 3 2 5 7 17 24 23 22 15 16 15 15 18 12 6 6 4 3 2 1 2 3 4 4 4 5 6 6 7 9 10 11 12 13 13 14 14 14 13 14 15 14 12
3 2 10 14 13 11 15 19 15 14 15 17 16 14 12 7 7 3 3 2 1 1 1 3 4 4 4 4 5 5 7 8 9 11 12 13 12 12 12 13 15 16 15 13
4 3 5 6 12 14 14 13 16 13 13 13 14 14 11 7 7 3 7 4 1 1 1 2 2 2 1 1 2 3 5 7 9 11 13 13 13 12 12 13 14 14 13 13
2 4 7 12 13 10 11 12 15 10 9 11 12 10 8 7 7 3 7 5 3 3 1 0 1 2 3 3 4 5 7 9 12 13 13 13 13 13 13 14 14 14 14 14
5 5 5 7 9 9 12 13 10 10 9 9 7 5 6 7 8 8 7 8 7 4 5 5 6 7 8 8 7 7 8 8 11 12 12 13 14 14 14 14 14 14 14 13
3 2 3 5 7 10 11 10 7 8 7 7 6 4 3 5 5 7 6 6 6 7 8 9 9 9 9 8 9 9 8 8 8 9 11 12 11 12 13 13 13 13 13 13
4 4 4 6 8 10 10 8 7 6 7 6 8 8 6 7 8 8 10 9 9 9 9 9 8 8 8 9 9 9 9 8 7 8 8 9 9 9 10 10 11 11 11 11
4 4 5 6 8 9 9 8 9 9 8 7 7 6 5 6 7 9 9 9 9 8 9 9 9 9 9 9 9 8 8 8 7 8 8 8 8 8 9 10 11 12 13 14
4 4 5 7 7 8 7 8 9 8 7 7 6 6 6 6 7 9 9 9 8 8 8 9 9 8 8 7 7 6 6 5 5 5 7 7 8 9 11 12 13 12 12 13
4 4 5 5 6 7 6 5 7 7 6 6 6 6 5 5 5 6 7 9 8 8 8 9 8 7 6 6 5 4 4 3 3 3 2 2 3 5 5 6 7 9 9 10
4 3 2 4 4 5 4 5 6 6 5 5 5 6 7 7 7 9 10 10 10 9 9 8 8 7 6 5 4 2 2 2 2 3 4 4 4 4 4 6 7 8 9 10
6 4 5 6 5 5 5 6 6 7 7 8 8 8 8 8 8 9 8 9 9 9 9 8 8 7 6 4 3 3 1 0 1 3 5 6 8 9 9 10 10 11 11 12
4 5 6 7 8 8 8 9 11 12 13 13 12 13 14 13 11 10 9 9 9 9 9 9 8 8 7 6 5 4 3 3 3 5 8 10 11 12 12 11 10 10 10 11
4 4 5 7 9 11 13 15 17 16 15 15 14 14 15 15 16 12 11 10 10 10 10 9 10 10 9 8 8 7 6 6 7 8 10 12 13 13 11 9 9 10 10 12
3 5 8 10 11 11 11 11 13 13 14 17 16 15 15 15 16 17 15 12 12 12 12 12 12 12 11 10 10 10 10 9 10 11 12 14 15 12 10 10 11 11 11 11
6 8 8 6 5 6 8 10 12 11 12 14 15 13 15 16 16 16 17 17 17 17 17 16 15 12 12 13 13 13 13 12 13 13 14 15 15 13 11 11 11 11 10 10
Wind_Direction
263 267 266 260 268 287 274 260 220 209 212 248 257 233 220 149 130 117 65 27 324 306 234 181 148 312 280 246 242 243 243 242 236 225 215 213 211 211 208 205 229 252 257 269
290 261 235 258 259 259 254 263 259 260 284 270 307 219 124 156 187 7 15 356 309 280 270 265 263 258 258 268 261 243 239 237 233 225 221 223 222 221 218 237 251 252 253 260
284 346 319 317 242 217 235 190 245 240 263 11 306 307 278 238 259 278 301 311 276 278 275 270 268 264 258 256 257 251 242 233 228 227 231 232 226 222 236 245 237 232 245 259
298 316 320 246 1 304 243 300 238 275 273 250 235 267 275 272 285 286 281 268 254 265 267 266 266 267 260 257 251 251 246 232 228 228 229 226 231 239 236 225 225 232 247 265
20 297 287 77 5 355 359 99 18 320 310 299 263 257 262 271 282 277 266 265 266 261 262 269 273 268 261 255 252 243 242 241 230 226 228 230 230 223 219 221 227 239 256 270
17 319 251 183 291 284 213 272 358 353 342 341 48 132 267 305 267 268 276 275 272 273 274 274 269 264 259 255 250 247 240 240 226 221 220 216 213 216 219 224 234 248 263 278
287 250 280 265 303 328 97 247 343 352 355 356 360 333 333 283 266 269 282 287 287 287 284 277 271 265 259 250 249 246 231 229 219 215 213 210 211 215 220 229 241 256 274 287
143 234 292 346 338 44 347 352 7 9 11 360 353 352 330 297 289 293 298 299 301 300 294 289 282 272 264 250 236 229 216 216 214 212 211 212 215 218 224 235 250 265 277 283
181 217 228 344 166 152 107 313 320 337 350 356 355 343 334 304 297 299 308 317 322 312 310 309 288 262 260 237 222 208 203 206 211 213 214 217 220 224 231 241 252 263 274 288
335 284 338 286 200 164 27 349 335 326 317 331 340 342 333 298 288 291 315 339 343 336 313 333 336 251 228 201 187 187 191 197 207 213 217 218 220 225 233 242 251 259 273 288
267 285 302 206 191 298 318 319 323 318 316 309 320 328 330 297 275 268 296 342 18 14 12 45 57 71 131 148 158 169 183 201 209 216 218 219 222 231 240 243 249 265 276 285
221 194 224 262 283 300 305 306 304 295 300 312 308 317 323 289 273 257 289 298 13 38 51 63 81 102 106 114 136 166 191 206 213 216 218 222 228 234 242 250 263 272 274 277
166 253 288 309 316 321 325 321 322 292 287 297 306 302 311 277 259 230 272 248 240 247 141 89 78 76 99 130 158 184 206 208 219 222 223 226 230 238 248 260 267 272 275 277
266 308 305 323 318 317 322 328 328 322 306 293 298 298 297 272 249 231 239 258 178 185 123 91 79 69 90 182 236 248 239 233 230 229 228 228 232 241 252 263 270 271 273 277
245 284 316 314 318 313 315 319 314 322 326 307 295 289 278 257 230 248 253 281 261 221 205 254 327 326 322 305 295 289 280 268 257 251 246 244 243 246 252 259 264 268 268 273
289 277 292 303 314 319 327 334 329 336 324 327 307 286 257 250 240 241 234 232 232 245 270 280 291 296 293 289 286 288 287 283 269 259 255 252 248 248 252 258 263 266 271 278
250 247 251 311 336 334 342 347 340 332 342 347 327 293 276 268 256 244 239 251 259 266 276 287 294 294 290 284 283 288 283 276 280 266 256 258 258 254 255 257 263 269 276 279
246 247 257 291 307 324 331 331 339 339 335 331 327 292 273 256 253 267 268 261 263 267 274 283 289 291 291 290 289 286 275 267 255 268 263 260 259 259 259 260 264 270 277 280
221 248 249 265 286 309 315 322 326 325 324 321 320 320 308 289 278 275 266 259 258 270 282 286 289 291 294 297 297 294 283 267 250 241 252 259 261 265 268 271 275 279 284 286
193 222 253 267 276 294 306 326 337 341 341 335 316 305 300 294 291 288 280 272 274 277 285 286 290 293 296 302 306 311 314 304 276 254 254 249 253 263 269 271 272 274 279 282
196 230 251 272 284 291 293 308 312 311 309 305 308 310 308 300 293 288 285 284 280 276 280 285 285 286 289 294 301 315 331 352 10 18 359 320 299 296 294 293 293 293 298 301
186 208 245 267 273 285 292 300 297 298 303 298 293 293 296 294 289 291 296 291 282 280 279 281 277 275 278 283 289 303 327 16 44 46 40 27 11 347 328 314 306 305 306 308
201 209 225 244 261 267 276 287 295 307 311 314 311 302 294 291 292 294 294 286 284 274 276 276 274 272 272 268 260 249 233 193 11 2 358 350 340 331 324 318 314 312 311 313
203 224 236 248 258 266 277 283 289 293 297 295 292 292 291 289 287 288 285 280 276 272 277 278 275 270 268 263 249 241 251 280 310 330 336 335 331 326 321 318 318 320 322 322
202 228 255 269 273 278 280 282 282 287 292 295 296 289 284 286 280 272 273 280 277 271 273 272 271 266 263 257 251 255 269 286 299 311 320 326 325 322 318 317 316 316 317 319
270 298 295 295 297 304 307 311 312 312 299 294 289 288 291 289 285 283 271 258 258 264 270 270 268 265 264 261 259 261 266 278 290 302 313 320 321 316 311 311 312 314 316 318
276 290 294 298 312 328 332 330 325 326 318 313 312 307 291 286 285 287 286 279 277 275 268 255 248 260 270 266 263 264 271 280 288 296 305 313 316 307 304 306 307 309 311 316